TimeEDT,TemperatureF,Dew PointF,Humidity,Sea Level PressureIn,VisibilityMPH,Wind Direction,Wind SpeedMPH,Gust SpeedMPH,PrecipitationIn,Events,Conditions,WindDirDegrees,DateUTC
12:53 AM,64.4,60.8,88,30.25,10.0,ESE,6.9,-,N/A,,Clear,120,2012-10-14 04:53:00
1:53 AM,63.0,60.1,90,30.24,10.0,ESE,3.5,-,N/A,,Clear,110,2012-10-14 05:53:00
2:53 AM,60.1,59.0,96,30.22,10.0,ENE,3.5,-,N/A,,Clear,70,2012-10-14 06:53:00
3:53 AM,60.1,57.9,93,30.21,10.0,East,4.6,-,N/A,,Clear,100,2012-10-14 07:53:00
4:53 AM,59.0,57.0,93,30.19,10.0,Calm,Calm,-,N/A,,Clear,0,2012-10-14 08:53:00
5:53 AM,57.9,55.9,93,30.19,10.0,ENE,3.5,-,N/A,,Clear,60,2012-10-14 09:53:00
6:53 AM,57.0,55.0,93,30.20,10.0,NE,4.6,-,N/A,,Mostly Cloudy,50,2012-10-14 10:53:00
7:53 AM,57.0,55.0,93,30.22,10.0,North,3.5,-,N/A,,Mostly Cloudy,10,2012-10-14 11:53:00
8:53 AM,62.1,57.9,86,30.20,10.0,ENE,4.6,-,N/A,,Overcast,60,2012-10-14 12:53:00
9:53 AM,66.9,59.0,76,30.21,10.0,SE,5.8,-,N/A,,Clear,130,2012-10-14 13:53:00
10:53 AM,72.0,61.0,68,30.21,10.0,Variable,3.5,-,N/A,,Clear,0,2012-10-14 14:53:00
11:53 AM,77.0,63.0,62,30.20,10.0,SE,5.8,-,N/A,,Clear,130,2012-10-14 15:53:00
12:53 PM,80.1,63.0,56,30.18,10.0,Variable,6.9,-,N/A,,Partly Cloudy,0,2012-10-14 16:53:00
1:53 PM,80.1,62.1,54,30.15,10.0,West,3.5,-,N/A,,Mostly Cloudy,280,2012-10-14 17:53:00
2:53 PM,80.1,62.1,54,30.12,10.0,WSW,5.8,-,N/A,,Overcast,250,2012-10-14 18:53:00
3:53 PM,80.6,62.6,54,30.11,10.0,WNW,5.8,-,N/A,,Mostly Cloudy,300,2012-10-14 19:53:00
4:53 PM,81.0,62.1,52,30.08,10.0,Calm,Calm,-,N/A,,Scattered Clouds,0,2012-10-14 20:53:00
5:53 PM,79.0,64.0,60,30.07,10.0,East,3.5,-,N/A,,Partly Cloudy,90,2012-10-14 21:53:00
6:53 PM,75.9,64.0,67,30.06,10.0,East,3.5,-,N/A,,Clear,90,2012-10-14 22:53:00
7:53 PM,71.1,64.9,81,30.05,10.0,SE,3.5,-,N/A,,Clear,130,2012-10-14 23:53:00
8:53 PM,71.1,66.0,84,30.03,10.0,SE,8.1,-,N/A,,Clear,140,2012-10-15 00:53:00
9:53 PM,71.1,64.9,81,30.04,10.0,SSE,4.6,-,N/A,,Clear,150,2012-10-15 01:53:00
10:53 PM,69.1,64.0,84,30.04,10.0,Calm,Calm,-,N/A,,Clear,0,2012-10-15 02:53:00
11:53 PM,66.9,63.0,87,30.04,10.0,Calm,Calm,-,N/A,,Clear,0,2012-10-15 03:53:00